Change the Weather History Date:

Thursday, December 1, 2011

  Actual Average Record
Temperature  
Mean Temperature 40 °F -  
Max Temperature 51 °F 54 °F 73 °F (1950)
Min Temperature 30 °F 37 °F 17 °F (1944)
Degree Days  
Heating Degree Days 24    
Moisture  
Dew Point 30 °F    
Average Humidity 72    
Maximum Humidity 89    
Minimum Humidity 48    
Precipitation  
Precipitation 0.00 in - - ()
Sea Level Pressure  
Sea Level Pressure 30.32 in    
Wind  
Wind Speed 3 mph (South)    
Max Wind Speed 8 mph    
Max Gust Speed -    
Visibility 10 miles    
Events      
Averages and records for this station are not official NWS values.
T = Trace of Precipitation, MM = Missing Value Source: NWS Daily Summary

Daily Weather History Graph

Daily Weather History Graph

Search for Another Location

Airport or City:

Trip Planner

Search our weather history database for the weather conditions in past years. The results will help you decide how hot, cold, wet, or windy it might be!

Date:

Astronomy

Dec. 01, 2011 Rise Set
Actual Time 6:51 AM CST 4:45 PM CST
Civil Twilight 6:22 AM CST 5:13 PM CST
Nautical Twilight 5:51 AM CST 5:45 PM CST
Astronomical Twilight 5:20 AM CST 6:16 PM CST
Moon 11:44 AM CST (12/1) 11:34 PM CST (12/1)
Length of Visible Light 10h 50m
Length of Day
9h 54m
Waxing Crescent, 43% of the Moon is Illuminated
Dec 1
Waxing Crescent
Dec 2
First Quarter
Dec 10
Full
Dec 17
Last Quarter
Dec 24
New

Hourly Weather History & Observations

Time (CST) Temp. Windchill Dew Point Humidity Pressure Visibility Wind Dir Wind Speed Gust Speed Precip Events Conditions
12:53 AM 32.0 °F 27.5 °F 27.0 °F 82% 30.25 in 10.0 mi SE 4.6 mph - N/A   Clear
1:53 AM 30.9 °F - 26.1 °F 82% 30.26 in 10.0 mi Calm Calm - N/A   Clear
2:53 AM 30.0 °F - 26.1 °F 85% 30.27 in 10.0 mi Calm Calm - N/A   Clear
3:53 AM 30.9 °F 27.5 °F 26.1 °F 82% 30.27 in 10.0 mi South 3.5 mph - N/A   Clear
4:53 AM 30.9 °F 27.5 °F 26.1 °F 82% 30.29 in 10.0 mi South 3.5 mph - N/A   Clear
5:53 AM 30.9 °F 25.2 °F 25.0 °F 79% 30.30 in 10.0 mi SSE 5.8 mph - N/A   Clear
6:53 AM 30.0 °F - 25.0 °F 82% 30.32 in 10.0 mi Calm Calm - N/A   Clear
7:53 AM 33.1 °F 30.0 °F 27.0 °F 78% 30.33 in 10.0 mi SE 3.5 mph - N/A   Clear
8:53 AM 37.9 °F 33.5 °F 28.9 °F 70% 30.35 in 10.0 mi South 5.8 mph - N/A   Clear
10:53 AM 44.1 °F 39.5 °F 32.0 °F 63% 30.36 in 10.0 mi South 8.1 mph - N/A   Clear
11:53 AM 46.9 °F - 30.9 °F 54% 30.34 in 10.0 mi SSW 6.9 mph - N/A   Clear
12:53 PM 48.9 °F - 30.0 °F 48% 30.32 in 10.0 mi South 4.6 mph - N/A   Clear
1:53 PM 50.0 °F - 30.9 °F 48% 30.31 in 10.0 mi SSW 4.6 mph - N/A   Clear
3:53 PM 51.1 °F - 32.0 °F 48% 30.32 in 10.0 mi Calm Calm - N/A   Clear
4:53 PM 48.0 °F - 33.1 °F 56% 30.32 in 10.0 mi Calm Calm - N/A   Clear
5:53 PM 45.0 °F 42.6 °F 34.0 °F 65% 30.32 in 10.0 mi ESE 4.6 mph - N/A   Clear
6:53 PM 41.0 °F - 34.0 °F 76% 30.33 in 9.0 mi Calm Calm - N/A   Clear
7:53 PM 41.0 °F - 34.0 °F 76% 30.34 in 9.0 mi Calm Calm - N/A   Clear
8:53 PM 39.0 °F - 33.1 °F 79% 30.34 in 10.0 mi Calm Calm - N/A   Clear
9:53 PM 39.0 °F - 34.0 °F 82% 30.34 in 10.0 mi Calm Calm - N/A   Clear
11:53 PM 35.1 °F 30.1 °F 32.0 °F 89% 30.36 in 10.0 mi West 5.8 mph - N/A   Clear